Terminal Aerodrome Forecast
Issued by NWS St Louis, MO

Home | Current Version | Previous Version | Text Only | Print | Product List | Glossary On
Versions: 1 2 3 4 5 6 7 8 9 10 11 12 13 14 15 16 17 18 19 20 21 22 23 24 25 26 27 28
000
FTUS43 KLSX 202300
TAFSTL
TAF
KSTL 202321Z 2100/2206 29012G22KT P6SM BKN050
     FM210100 25010KT P6SM SCT080
     FM211500 27018G28KT P6SM BKN080
     FM220100 26007KT P6SM SCT050=

USA.gov is the U.S. government's official web portal to all federal, state and local government web resources and services.